This is the latest recevied weather packets stored in our database for station/object N5XJB. If no packets are shown the sender has not sent any weather packets the latest 10 day(s).
| Time | Temp. | Humidity | Pressure | Rain* | Wind** | Luminosity | Snow |
|---|---|---|---|---|---|---|---|
| 1777994270 | 25.56° C | 85% | 1010.4 hPa | 0 mm | - | 120 W/m² | - |
| 1777993968 | 25.56° C | 86% | 1010.4 hPa | 0 mm | - | 110 W/m² | - |
| 1777993665 | 25.56° C | 86% | 1010.4 hPa | 0 mm | - | 111 W/m² | - |
| 1777993362 | 25.56° C | 85% | 1010.4 hPa | 0 mm | - | 70 W/m² | - |
| 1777993056 | 25.56° C | 85% | 1010.4 hPa | 0 mm | - | 115 W/m² | - |
| 1777992755 | 25.56° C | 85% | 1010.7 hPa | 0 mm | - | 121 W/m² | - |
| 1777992452 | 25.56° C | 85% | 1010 hPa | 0 mm | - | 119 W/m² | - |
| 1777992150 | 25.56° C | 85% | 1010 hPa | 0 mm | - | 128 W/m² | - |
| 1777991847 | 25.56° C | 85% | 1010 hPa | 0 mm | - | 172 W/m² | - |
| 1777991544 | 25.56° C | 86% | 1010 hPa | 0 mm | - | 164 W/m² | - |
| 1777991241 | 25.56° C | 86% | 1010 hPa | 0 mm | - | 173 W/m² | - |
| 1777990938 | 25.56° C | 86% | 1010.4 hPa | 0 mm | - | 145 W/m² | - |
| 1777990636 | 25° C | 87% | 1010 hPa | 0 mm | - | 138 W/m² | - |
| 1777990333 | 25° C | 87% | 1010 hPa | 0 mm | - | 138 W/m² | - |
| 1777990029 | 25° C | 87% | 1010 hPa | 0 mm | - | 142 W/m² | - |
| 1777989726 | 25° C | 87% | 1009.7 hPa | 0 mm | - | 133 W/m² | - |
| 1777989422 | 25° C | 87% | 1010 hPa | 0 mm | - | 156 W/m² | - |
| 1777989119 | 24.44° C | 88% | 1010.4 hPa | 0 mm | - | 144 W/m² | - |
| 1777988814 | 24.44° C | 88% | 1010 hPa | 0 mm | - | 153 W/m² | - |
| 1777988512 | 24.44° C | 89% | 1010.4 hPa | 0 mm | - | 121 W/m² | - |
| 1777988209 | 24.44° C | 89% | 1010.4 hPa | 0 mm | - | 88 W/m² | - |
| 1777987905 | 24.44° C | 89% | 1010.4 hPa | 0 mm | - | 87 W/m² | - |
| 1777987601 | 24.44° C | 89% | 1010.4 hPa | 0 mm | - | 87 W/m² | - |
| 1777987299 | 24.44° C | 89% | 1010.4 hPa | 0 mm | - | 122 W/m² | - |
| 1777986995 | 23.89° C | 89% | 1010.4 hPa | 0 mm | - | 136 W/m² | - |
* Rain latest hour (hover to see other rain measurements)
** Current wind speed in m/s (hover to see current wind gust speed)